Time,TemperatureF,DewpointF,PressureIn,WindDirection,WindDirectionDegrees,WindSpeedMPH,WindSpeedGustMPH,Humidity,HourlyPrecipIn,Conditions,Clouds,dailyrainin,SoftwareType,DateUTC
2013-01-08 00:00:00,29.7,20.1,30.20,West,260,0.0,0.0,67,0.00,CLR,FEW,0.00,WeatherDisplay:10.37,2013-01-08 05:00:00,
2013-01-08 00:03:00,29.4,19.8,30.20,West,259,0.0,0.0,67,0.00,CLR,FEW,0.00,WeatherDisplay:10.37,2013-01-08 05:03:00,
2013-01-08 00:08:00,29.2,19.6,30.20,West,259,0.0,0.0,67,0.00,CLR,FEW,0.00,WeatherDisplay:10.37,2013-01-08 05:08:00,
2013-01-08 00:13:00,29.3,20.0,30.20,West,259,0.0,0.0,68,0.00,CLR,FEW,0.00,WeatherDisplay:10.37,2013-01-08 05:13:00,
2013-01-08 00:18:00,28.7,19.1,30.20,West,259,0.0,0.0,67,0.00,CLR,FEW,0.00,WeatherDisplay:10.37,2013-01-08 05:18:00,
2013-01-08 00:23:00,28.5,19.3,30.20,West,259,0.0,0.0,68,0.00,CLR,FEW,0.00,WeatherDisplay:10.37,2013-01-08 05:23:00,
2013-01-08 00:28:00,28.4,19.5,30.20,West,259,0.0,0.0,69,0.00,CLR,FEW,0.00,WeatherDisplay:10.37,2013-01-08 05:28:00,
2013-01-08 00:33:00,28.8,19.9,30.20,West,259,1.1,1.1,69,0.00,CLR,FEW,0.00,WeatherDisplay:10.37,2013-01-08 05:33:00,
2013-01-08 00:38:00,29.6,20.7,30.20,West,259,0.0,0.0,69,0.00,CLR,FEW,0.00,WeatherDisplay:10.37,2013-01-08 05:38:00,
2013-01-08 00:43:00,30.4,21.4,30.20,WSW,253,4.0,4.0,69,0.00,CLR,FEW,0.00,WeatherDisplay:10.37,2013-01-08 05:43:00,
2013-01-08 00:48:00,30.9,21.2,30.20,SW,225,4.6,4.6,67,0.00,CLR,FEW,0.00,WeatherDisplay:10.37,2013-01-08 05:48:00,
2013-01-08 00:53:00,31.1,21.4,30.20,SW,217,3.5,3.5,67,0.00,CLR,FEW,0.00,WeatherDisplay:10.37,2013-01-08 05:53:00,
2013-01-08 00:58:00,31.1,21.4,30.20,SW,216,3.5,3.5,67,0.00,CLR,FEW,0.00,WeatherDisplay:10.37,2013-01-08 05:58:00,
2013-01-08 01:03:00,31.1,21.1,30.21,SW,216,0.0,0.0,66,0.00,CLR,FEW,0.00,WeatherDisplay:10.37,2013-01-08 06:03:00,
2013-01-08 01:08:00,30.7,20.7,30.20,SW,216,0.0,0.0,66,0.00,CLR,FEW,0.00,WeatherDisplay:10.37,2013-01-08 06:08:00,
2013-01-08 01:13:00,30.1,20.1,30.20,SW,216,0.0,0.0,66,0.00,CLR,FEW,0.00,WeatherDisplay:10.37,2013-01-08 06:13:00,
2013-01-08 01:18:00,29.4,19.4,30.20,SW,216,0.0,0.0,66,0.00,CLR,FEW,0.00,WeatherDisplay:10.37,2013-01-08 06:18:00,
2013-01-08 01:23:00,28.9,19.3,30.20,SW,216,0.0,0.0,67,0.00,CLR,FEW,0.00,WeatherDisplay:10.37,2013-01-08 06:23:00,
2013-01-08 01:28:00,28.5,19.3,30.20,SW,216,0.0,0.0,68,0.00,CLR,FEW,0.00,WeatherDisplay:10.37,2013-01-08 06:28:00,
2013-01-08 01:33:00,28.2,19.3,30.20,SW,216,0.0,0.0,69,0.00,CLR,FEW,0.00,WeatherDisplay:10.37,2013-01-08 06:33:00,
2013-01-08 01:38:00,27.9,19.0,30.20,SW,216,0.0,0.0,69,0.00,CLR,FEW,0.00,WeatherDisplay:10.37,2013-01-08 06:38:00,
2013-01-08 01:43:00,27.7,19.2,30.20,SW,216,0.0,0.0,70,0.00,CLR,FEW,0.00,WeatherDisplay:10.37,2013-01-08 06:43:00,
2013-01-08 01:48:00,27.7,19.2,30.20,SW,216,0.0,0.0,70,0.00,CLR,FEW,0.00,WeatherDisplay:10.37,2013-01-08 06:48:00,
2013-01-08 01:53:00,27.7,19.5,30.20,SW,216,0.0,0.0,71,0.00,CLR,FEW,0.00,WeatherDisplay:10.37,2013-01-08 06:53:00,
2013-01-08 01:58:00,28.3,20.4,30.20,SW,216,0.0,0.0,72,0.00,CLR,FEW,0.00,WeatherDisplay:10.37,2013-01-08 06:58:00,
2013-01-08 02:03:00,29.0,20.8,30.20,SW,216,0.0,0.0,71,0.00,CLR,FEW,0.00,WeatherDisplay:10.37,2013-01-08 07:03:00,
2013-01-08 02:08:00,29.4,21.2,30.20,SW,216,0.0,0.0,71,0.00,CLR,FEW,0.00,WeatherDisplay:10.37,2013-01-08 07:08:00,
2013-01-08 02:13:00,29.5,21.3,30.20,SW,216,0.0,0.0,71,0.00,CLR,FEW,0.00,WeatherDisplay:10.37,2013-01-08 07:13:00,
2013-01-08 02:18:00,29.3,20.7,30.20,SW,216,0.0,0.0,70,0.00,CLR,FEW,0.00,WeatherDisplay:10.37,2013-01-08 07:18:00,
2013-01-08 02:23:00,29.2,20.6,30.20,SW,216,0.0,0.0,70,0.00,CLR,FEW,0.00,WeatherDisplay:10.37,2013-01-08 07:23:00,
2013-01-08 02:28:00,29.0,20.8,30.20,SW,216,0.0,0.0,71,0.00,CLR,FEW,0.00,WeatherDisplay:10.37,2013-01-08 07:28:00,
2013-01-08 02:33:00,28.9,20.7,30.20,SW,216,0.0,0.0,71,0.00,CLR,FEW,0.00,WeatherDisplay:10.37,2013-01-08 07:33:00,
2013-01-08 02:38:00,28.6,20.4,30.20,SW,216,0.0,0.0,71,0.00,CLR,FEW,0.00,WeatherDisplay:10.37,2013-01-08 07:38:00,
2013-01-08 02:43:00,28.5,20.3,30.19,SW,216,2.3,2.3,71,0.00,CLR,FEW,0.00,WeatherDisplay:10.37,2013-01-08 07:43:00,
2013-01-08 02:48:00,28.5,20.3,30.19,SW,216,3.5,3.5,71,0.00,CLR,FEW,0.00,WeatherDisplay:10.37,2013-01-08 07:48:00,
2013-01-08 02:53:00,28.4,20.5,30.19,SW,216,2.3,2.3,72,0.00,CLR,FEW,0.00,WeatherDisplay:10.37,2013-01-08 07:53:00,
2013-01-08 02:58:00,28.1,19.9,30.19,SW,216,2.3,2.3,71,0.00,CLR,FEW,0.00,WeatherDisplay:10.37,2013-01-08 07:58:00,
2013-01-08 03:03:00,27.9,20.0,30.19,SW,216,2.3,2.3,72,0.00,CLR,FEW,0.00,WeatherDisplay:10.37,2013-01-08 08:03:00,
2013-01-08 03:08:00,27.9,20.0,30.19,SW,216,1.1,0.0,72,0.00,CLR,FEW,0.00,WeatherDisplay:10.37,2013-01-08 08:08:00,
2013-01-08 03:13:00,27.8,19.9,30.19,SW,216,1.1,1.1,72,0.00,CLR,FEW,0.00,WeatherDisplay:10.37,2013-01-08 08:13:00,
2013-01-08 03:18:00,27.8,20.3,30.19,SW,216,1.1,0.0,73,0.00,CLR,FEW,0.00,WeatherDisplay:10.37,2013-01-08 08:18:00,
2013-01-08 03:23:00,27.8,20.3,30.18,SW,216,1.1,0.0,73,0.00,CLR,FEW,0.00,WeatherDisplay:10.37,2013-01-08 08:23:00,
2013-01-08 03:28:00,27.9,20.7,30.19,SW,216,1.1,1.1,74,0.00,CLR,FEW,0.00,WeatherDisplay:10.37,2013-01-08 08:28:00,
2013-01-08 03:33:00,27.9,20.4,30.19,SW,216,0.0,0.0,73,0.00,CLR,FEW,0.00,WeatherDisplay:10.37,2013-01-08 08:33:00,
2013-01-08 03:38:00,27.9,20.4,30.19,SW,216,0.0,0.0,73,0.00,CLR,FEW,0.00,WeatherDisplay:10.37,2013-01-08 08:38:00,
2013-01-08 03:43:00,27.9,20.7,30.19,SW,216,0.0,0.0,74,0.00,CLR,FEW,0.00,WeatherDisplay:10.37,2013-01-08 08:43:00,
2013-01-08 03:48:00,27.9,20.7,30.19,SW,216,0.0,0.0,74,0.00,CLR,FEW,0.00,WeatherDisplay:10.37,2013-01-08 08:48:00,
2013-01-08 03:53:00,27.8,20.6,30.19,SW,216,0.0,0.0,74,0.00,CLR,FEW,0.00,WeatherDisplay:10.37,2013-01-08 08:53:00,
2013-01-08 03:58:00,27.7,20.5,30.19,SW,216,0.0,0.0,74,0.00,CLR,FEW,0.00,WeatherDisplay:10.37,2013-01-08 08:58:00,
2013-01-08 04:03:00,27.6,20.7,30.18,SW,216,0.0,0.0,75,0.00,CLR,FEW,0.00,WeatherDisplay:10.37,2013-01-08 09:03:00,
2013-01-08 04:08:00,27.4,20.5,30.18,SW,216,0.0,0.0,75,0.00,CLR,FEW,0.00,WeatherDisplay:10.37,2013-01-08 09:08:00,
2013-01-08 04:13:00,27.4,20.5,30.19,SW,216,0.0,0.0,75,0.00,CLR,FEW,0.00,WeatherDisplay:10.37,2013-01-08 09:13:00,
2013-01-08 04:18:00,27.2,20.3,30.19,SW,216,0.0,0.0,75,0.00,CLR,FEW,0.00,WeatherDisplay:10.37,2013-01-08 09:18:00,
2013-01-08 04:23:00,27.0,20.1,30.19,SW,216,0.0,0.0,75,0.00,CLR,FEW,0.00,WeatherDisplay:10.37,2013-01-08 09:23:00,
2013-01-08 04:28:00,26.9,20.0,30.19,SW,216,0.0,0.0,75,0.00,CLR,FEW,0.00,WeatherDisplay:10.37,2013-01-08 09:28:00,
2013-01-08 04:33:00,26.8,20.2,30.19,SW,216,0.0,0.0,76,0.00,CLR,FEW,0.00,WeatherDisplay:10.37,2013-01-08 09:33:00,
2013-01-08 04:38:00,26.7,20.1,30.19,SW,216,0.0,0.0,76,0.00,CLR,FEW,0.00,WeatherDisplay:10.37,2013-01-08 09:38:00,
2013-01-08 04:43:00,26.7,20.1,30.19,SW,216,0.0,0.0,76,0.00,CLR,FEW,0.00,WeatherDisplay:10.37,2013-01-08 09:43:00,
2013-01-08 04:48:00,26.7,20.5,30.20,SW,216,0.0,0.0,77,0.00,CLR,FEW,0.00,WeatherDisplay:10.37,2013-01-08 09:48:00,
2013-01-08 04:53:00,26.9,20.7,30.20,SW,216,0.0,0.0,77,0.00,CLR,FEW,0.00,WeatherDisplay:10.37,2013-01-08 09:53:00,
2013-01-08 04:58:00,27.0,20.7,30.20,SW,216,0.0,0.0,77,0.00,CLR,FEW,0.00,WeatherDisplay:10.37,2013-01-08 09:58:00,
2013-01-08 05:03:00,27.1,21.2,30.20,SW,216,2.3,2.3,78,0.00,CLR,FEW,0.00,WeatherDisplay:10.37,2013-01-08 10:03:00,
2013-01-08 05:08:00,28.2,22.5,30.20,SW,216,3.5,3.5,79,0.00,CLR,FEW,0.00,WeatherDisplay:10.37,2013-01-08 10:08:00,
2013-01-08 05:13:00,28.2,22.2,30.20,SW,216,3.5,3.5,78,0.00,CLR,FEW,0.00,WeatherDisplay:10.37,2013-01-08 10:13:00,
2013-01-08 05:18:00,28.4,22.4,30.21,SW,216,1.1,1.1,78,0.00,CLR,FEW,0.00,WeatherDisplay:10.37,2013-01-08 10:18:00,
2013-01-08 05:23:00,28.2,21.9,30.21,SW,216,0.0,0.0,77,0.00,CLR,FEW,0.00,WeatherDisplay:10.37,2013-01-08 10:23:00,
2013-01-08 05:28:00,27.8,21.5,30.21,SW,216,0.0,0.0,77,0.00,CLR,FEW,0.00,WeatherDisplay:10.37,2013-01-08 10:28:00,
2013-01-08 05:33:00,27.4,21.1,30.21,SW,216,0.0,0.0,77,0.00,CLR,FEW,0.00,WeatherDisplay:10.37,2013-01-08 10:33:00,
2013-01-08 05:38:00,26.8,20.6,30.21,SW,216,0.0,0.0,77,0.00,CLR,FEW,0.00,WeatherDisplay:10.37,2013-01-08 10:38:00,
2013-01-08 05:43:00,26.9,20.7,30.21,SW,216,0.0,0.0,77,0.00,CLR,FEW,0.00,WeatherDisplay:10.37,2013-01-08 10:43:00,
2013-01-08 05:48:00,26.6,20.4,30.21,SW,216,0.0,0.0,77,0.00,CLR,FEW,0.00,WeatherDisplay:10.37,2013-01-08 10:48:00,
2013-01-08 05:53:00,26.7,20.8,30.21,SW,216,0.0,0.0,78,0.00,CLR,FEW,0.00,WeatherDisplay:10.37,2013-01-08 10:53:00,
2013-01-08 05:58:00,27.1,21.2,30.22,SW,215,1.1,1.1,78,0.00,CLR,FEW,0.00,WeatherDisplay:10.37,2013-01-08 10:58:00,
2013-01-08 06:03:00,26.9,21.3,30.21,SW,216,2.3,2.3,79,0.00,CLR,FEW,0.00,WeatherDisplay:10.37,2013-01-08 11:03:00,
2013-01-08 06:08:00,26.8,20.9,30.20,SW,216,1.1,1.1,78,0.00,CLR,FEW,0.00,WeatherDisplay:10.37,2013-01-08 11:08:00,
2013-01-08 06:13:00,26.6,21.0,30.20,SW,216,0.0,0.0,79,0.00,CLR,FEW,0.00,WeatherDisplay:10.37,2013-01-08 11:13:00,
2013-01-08 06:18:00,26.7,21.4,30.20,SW,216,0.0,0.0,80,0.00,CLR,FEW,0.00,WeatherDisplay:10.37,2013-01-08 11:18:00,
2013-01-08 06:23:00,26.8,21.5,30.20,SW,216,0.0,0.0,80,0.00,CLR,FEW,0.00,WeatherDisplay:10.37,2013-01-08 11:23:00,
2013-01-08 06:28:00,26.9,21.6,30.20,SW,216,2.3,2.3,80,0.00,CLR,FEW,0.00,WeatherDisplay:10.37,2013-01-08 11:28:00,
2013-01-08 06:33:00,27.1,21.7,30.20,SW,216,3.5,3.5,80,0.00,CLR,FEW,0.00,WeatherDisplay:10.37,2013-01-08 11:33:00,
2013-01-08 06:38:00,27.5,22.4,30.21,SW,216,0.0,0.0,81,0.00,CLR,FEW,0.00,WeatherDisplay:10.37,2013-01-08 11:38:00,
2013-01-08 06:43:00,27.7,22.6,30.21,SW,216,1.1,0.0,81,0.00,CLR,FEW,0.00,WeatherDisplay:10.37,2013-01-08 11:43:00,
2013-01-08 06:48:00,27.7,22.6,30.21,SW,216,1.1,0.0,81,0.00,CLR,FEW,0.00,WeatherDisplay:10.37,2013-01-08 11:48:00,
2013-01-08 06:53:00,27.7,22.3,30.21,SW,216,0.0,0.0,80,0.00,CLR,FEW,0.00,WeatherDisplay:10.37,2013-01-08 11:53:00,
2013-01-08 06:58:00,27.8,22.7,30.21,SW,216,0.0,0.0,81,0.00,CLR,FEW,0.00,WeatherDisplay:10.37,2013-01-08 11:58:00,
2013-01-08 07:03:00,27.8,22.4,30.21,SW,216,0.0,0.0,80,0.00,CLR,FEW,0.00,WeatherDisplay:10.37,2013-01-08 12:03:00,
2013-01-08 07:08:00,27.8,22.7,30.22,SW,216,0.0,0.0,81,0.00,CLR,FEW,0.00,WeatherDisplay:10.37,2013-01-08 12:08:00,
2013-01-08 07:13:00,27.8,22.4,30.22,SW,216,0.0,0.0,80,0.00,CLR,FEW,0.00,WeatherDisplay:10.37,2013-01-08 12:13:00,
2013-01-08 07:18:00,27.7,22.3,30.22,SW,216,0.0,0.0,80,0.00,CLR,FEW,0.00,WeatherDisplay:10.37,2013-01-08 12:18:00,
2013-01-08 07:23:00,27.5,22.1,30.22,SW,216,0.0,0.0,80,0.00,CLR,FEW,0.00,WeatherDisplay:10.37,2013-01-08 12:23:00,
2013-01-08 07:28:00,27.1,21.7,30.23,SW,217,0.0,0.0,80,0.00,CLR,FEW,0.00,WeatherDisplay:10.37,2013-01-08 12:28:00,
2013-01-08 07:33:00,27.4,22.0,30.22,SW,216,0.0,0.0,80,0.00,CLR,FEW,0.00,WeatherDisplay:10.37,2013-01-08 12:33:00,
2013-01-08 07:38:00,27.4,22.0,30.22,SW,216,0.0,0.0,80,0.00,CLR,FEW,0.00,WeatherDisplay:10.37,2013-01-08 12:38:00,
2013-01-08 07:43:00,27.4,22.3,30.22,SW,216,0.0,0.0,81,0.00,CLR,FEW,0.00,WeatherDisplay:10.37,2013-01-08 12:43:00,
2013-01-08 07:48:00,27.7,22.6,30.23,SW,216,0.0,0.1,81,0.00,CLR,FEW,0.00,WeatherDisplay:10.37,2013-01-08 12:48:00,
2013-01-08 07:53:00,27.8,22.7,30.23,SW,216,0.0,0.0,81,0.00,CLR,FEW,0.00,WeatherDisplay:10.37,2013-01-08 12:53:00,
2013-01-08 07:58:00,27.9,22.8,30.23,SW,216,0.0,0.0,81,0.00,CLR,FEW,0.00,WeatherDisplay:10.37,2013-01-08 12:58:00,
2013-01-08 08:03:00,28.0,22.9,30.23,SW,216,0.0,0.0,81,0.00,CLR,FEW,0.00,WeatherDisplay:10.37,2013-01-08 13:03:00,
2013-01-08 08:08:00,28.1,23.0,30.23,SW,216,2.3,2.3,81,0.00,CLR,FEW,0.00,WeatherDisplay:10.37,2013-01-08 13:08:00,
2013-01-08 08:13:00,28.2,23.1,30.22,SW,216,2.3,2.3,81,0.00,CLR,FEW,0.00,WeatherDisplay:10.37,2013-01-08 13:13:00,
2013-01-08 08:18:00,28.5,23.4,30.23,SW,215,2.3,2.3,81,0.00,CLR,FEW,0.00,WeatherDisplay:10.37,2013-01-08 13:18:00,
2013-01-08 08:23:00,28.7,23.6,30.23,SW,215,2.3,2.3,81,0.00,CLR,FEW,0.00,WeatherDisplay:10.37,2013-01-08 13:23:00,
2013-01-08 08:28:00,29.0,24.2,30.23,SW,215,2.3,2.3,82,0.00,CLR,FEW,0.00,WeatherDisplay:10.37,2013-01-08 13:28:00,
2013-01-08 08:33:00,29.3,24.5,30.23,SW,215,3.5,3.5,82,0.00,CLR,FEW,0.00,WeatherDisplay:10.37,2013-01-08 13:33:00,
2013-01-08 08:38:00,29.7,24.9,30.23,SW,214,3.5,3.5,82,0.00,CLR,FEW,0.00,WeatherDisplay:10.37,2013-01-08 13:38:00,
2013-01-08 08:43:00,30.0,24.9,30.23,SSW,213,3.5,3.5,81,0.00,CLR,FEW,0.00,WeatherDisplay:10.37,2013-01-08 13:43:00,
2013-01-08 08:48:00,30.4,25.3,30.23,SSW,213,3.5,3.5,81,0.00,CLR,FEW,0.00,WeatherDisplay:10.37,2013-01-08 13:48:00,
2013-01-08 08:53:00,30.7,25.3,30.23,SSW,211,2.3,2.3,80,0.00,CLR,FEW,0.00,WeatherDisplay:10.37,2013-01-08 13:53:00,
2013-01-08 08:58:00,30.9,25.8,30.23,SSW,211,3.0,3.0,81,0.00,CLR,FEW,0.00,WeatherDisplay:10.37,2013-01-08 13:58:00,
2013-01-08 09:03:00,31.2,25.7,30.23,SSW,211,3.5,3.5,80,0.00,CLR,FEW,0.00,WeatherDisplay:10.37,2013-01-08 14:03:00,
2013-01-08 09:08:00,31.4,25.9,30.23,SSW,211,3.5,3.5,80,0.00,CLR,FEW,0.00,WeatherDisplay:10.37,2013-01-08 14:08:00,
2013-01-08 09:13:00,31.8,26.3,30.23,SSW,209,4.6,4.6,80,0.00,CLR,FEW,0.00,WeatherDisplay:10.37,2013-01-08 14:13:00,
2013-01-08 09:18:00,32.2,26.7,30.22,SSW,197,4.0,4.0,80,0.00,CLR,FEW,0.00,WeatherDisplay:10.37,2013-01-08 14:18:00,
2013-01-08 09:23:00,32.5,26.7,30.22,South,183,6.0,6.0,79,0.00,CLR,FEW,0.00,WeatherDisplay:10.37,2013-01-08 14:23:00,
2013-01-08 09:28:00,32.9,27.1,30.22,South,188,4.6,4.6,79,0.00,CLR,FEW,0.00,WeatherDisplay:10.37,2013-01-08 14:28:00,
2013-01-08 09:33:00,33.1,27.3,30.22,South,177,3.5,3.5,79,0.00,CLR,FEW,0.00,WeatherDisplay:10.37,2013-01-08 14:33:00,
2013-01-08 09:38:00,33.4,27.3,30.22,South,177,3.5,3.5,78,0.00,CLR,FEW,0.00,WeatherDisplay:10.37,2013-01-08 14:38:00,
2013-01-08 09:43:00,33.5,27.4,30.22,South,190,6.9,6.9,78,0.00,CLR,FEW,0.00,WeatherDisplay:10.37,2013-01-08 14:43:00,
2013-01-08 09:48:00,33.9,27.4,30.22,South,187,3.5,3.5,77,0.00,CLR,FEW,0.00,WeatherDisplay:10.37,2013-01-08 14:48:00,
2013-01-08 09:53:00,34.3,27.8,30.22,South,189,8.0,8.0,77,0.00,CLR,FEW,0.00,WeatherDisplay:10.37,2013-01-08 14:53:00,
2013-01-08 09:58:00,34.6,27.8,30.22,SSW,193,12.7,12.7,76,0.00,CLR,FEW,0.00,WeatherDisplay:10.37,2013-01-08 14:58:00,
2013-01-08 10:03:00,34.9,27.8,30.22,SSW,193,10.4,10.4,75,0.00,CLR,FEW,0.00,WeatherDisplay:10.37,2013-01-08 15:03:00,
2013-01-08 10:08:00,35.3,27.8,30.22,SSW,197,9.2,9.2,74,0.00,CLR,FEW,0.00,WeatherDisplay:10.37,2013-01-08 15:08:00,
2013-01-08 10:13:00,35.5,28.0,30.22,SSW,196,11.5,11.5,74,0.00,CLR,FEW,0.00,WeatherDisplay:10.37,2013-01-08 15:13:00,
2013-01-08 10:18:00,35.7,27.6,30.22,SSW,196,10.4,10.4,72,0.00,CLR,FEW,0.00,WeatherDisplay:10.37,2013-01-08 15:18:00,
2013-01-08 10:23:00,36.1,27.9,30.21,SSW,195,7.0,7.0,72,0.00,CLR,FEW,0.00,WeatherDisplay:10.37,2013-01-08 15:23:00,
2013-01-08 10:29:00,36.5,28.0,30.21,South,183,8.1,8.1,71,0.00,CLR,FEW,0.00,WeatherDisplay:10.37,2013-01-08 15:29:00,
2013-01-08 10:34:00,36.9,28.4,30.21,SSW,198,5.8,5.8,71,0.00,CLR,FEW,0.00,WeatherDisplay:10.37,2013-01-08 15:34:00,
2013-01-08 10:39:00,37.2,28.3,30.21,South,186,9.2,9.2,70,0.00,CLR,FEW,0.00,WeatherDisplay:10.37,2013-01-08 15:39:00,
2013-01-08 10:44:00,37.5,28.2,30.20,South,189,2.3,2.3,69,0.00,CLR,FEW,0.00,WeatherDisplay:10.37,2013-01-08 15:44:00,
2013-01-08 10:49:00,38.0,28.7,30.20,SSW,194,11.5,11.5,69,0.00,CLR,FEW,0.00,WeatherDisplay:10.37,2013-01-08 15:49:00,
2013-01-08 10:54:00,38.3,28.7,30.20,SW,231,11.5,11.5,68,0.00,CLR,FEW,0.00,WeatherDisplay:10.37,2013-01-08 15:54:00,
2013-01-08 10:59:00,38.8,28.8,30.19,SSW,198,10.4,10.4,67,0.00,CLR,FEW,0.00,WeatherDisplay:10.37,2013-01-08 15:59:00,
2013-01-08 11:04:00,39.2,28.8,30.19,South,189,12.7,12.7,66,0.00,CLR,FEW,0.00,WeatherDisplay:10.37,2013-01-08 16:04:00,
2013-01-08 11:09:00,39.5,28.7,30.20,SSW,206,16.1,16.1,65,0.00,CLR,FEW,0.00,WeatherDisplay:10.37,2013-01-08 16:09:00,
2013-01-08 11:14:00,39.5,28.7,30.18,SW,229,13.8,13.8,65,0.00,CLR,FEW,0.00,WeatherDisplay:10.37,2013-01-08 16:14:00,
2013-01-08 11:19:00,39.9,28.7,30.18,SW,217,13.0,13.0,64,0.00,CLR,FEW,0.00,WeatherDisplay:10.37,2013-01-08 16:19:00,
2013-01-08 11:24:00,40.0,28.8,30.17,SSW,212,11.5,11.5,64,0.00,CLR,FEW,0.00,WeatherDisplay:10.37,2013-01-08 16:24:00,
2013-01-08 11:29:00,40.3,28.7,30.17,SSW,209,13.8,13.8,63,0.00,CLR,FEW,0.00,WeatherDisplay:10.37,2013-01-08 16:29:00,
2013-01-08 11:34:00,40.4,28.8,30.17,SW,227,9.2,9.2,63,0.00,CLR,FEW,0.00,WeatherDisplay:10.37,2013-01-08 16:34:00,
2013-01-08 11:39:00,40.9,28.9,30.16,SSW,193,9.2,9.2,62,0.00,CLR,FEW,0.00,WeatherDisplay:10.37,2013-01-08 16:39:00,
2013-01-08 11:44:00,41.0,28.6,30.16,SW,221,13.8,13.8,61,0.00,CLR,FEW,0.00,WeatherDisplay:10.37,2013-01-08 16:44:00,
2013-01-08 11:49:00,41.1,28.7,30.16,SSW,205,13.8,13.8,61,0.00,CLR,FEW,0.00,WeatherDisplay:10.37,2013-01-08 16:49:00,
2013-01-08 11:54:00,41.5,29.0,30.16,SSW,198,10.4,10.4,61,0.00,CLR,FEW,0.00,WeatherDisplay:10.37,2013-01-08 16:54:00,
2013-01-08 11:59:00,41.5,28.6,30.15,SSW,206,10.4,10.4,60,0.00,CLR,FEW,0.00,WeatherDisplay:10.37,2013-01-08 16:59:00,
2013-01-08 12:04:00,41.9,29.0,30.15,SW,218,12.7,12.7,60,0.00,CLR,FEW,0.00,WeatherDisplay:10.37,2013-01-08 17:04:00,
2013-01-08 12:09:00,42.1,29.2,30.15,WSW,245,8.1,8.1,60,0.00,CLR,FEW,0.00,WeatherDisplay:10.37,2013-01-08 17:09:00,
2013-01-08 12:14:00,42.4,29.1,30.15,SW,215,12.7,12.7,59,0.00,CLR,FEW,0.00,WeatherDisplay:10.37,2013-01-08 17:14:00,
2013-01-08 12:19:00,42.5,29.2,30.15,WSW,240,9.2,9.2,59,0.00,CLR,FEW,0.00,WeatherDisplay:10.37,2013-01-08 17:19:00,
2013-01-08 12:24:00,42.8,29.5,30.15,WSW,258,9.2,9.2,59,0.00,CLR,FEW,0.00,WeatherDisplay:10.37,2013-01-08 17:24:00,
2013-01-08 12:29:00,43.2,29.4,30.15,SSW,207,12.7,12.7,58,0.00,CLR,FEW,0.00,WeatherDisplay:10.37,2013-01-08 17:29:00,
2013-01-08 12:34:00,43.1,29.3,30.15,SSW,192,11.5,11.5,58,0.00,CLR,FEW,0.00,WeatherDisplay:10.37,2013-01-08 17:34:00,
2013-01-08 12:39:00,43.5,29.7,30.15,SW,225,11.5,11.5,58,0.00,CLR,FEW,0.00,WeatherDisplay:10.37,2013-01-08 17:39:00,
2013-01-08 12:44:00,43.5,29.3,30.14,SW,215,11.5,11.5,57,0.00,CLR,FEW,0.00,WeatherDisplay:10.37,2013-01-08 17:44:00,
2013-01-08 12:49:00,43.6,29.4,30.14,South,177,11.5,11.5,57,0.00,CLR,FEW,0.00,WeatherDisplay:10.37,2013-01-08 17:49:00,
2013-01-08 12:54:00,43.9,29.6,30.14,South,180,9.2,9.2,57,0.00,CLR,FEW,0.00,WeatherDisplay:10.37,2013-01-08 17:54:00,
2013-01-08 12:59:00,44.3,30.0,30.14,SSW,201,10.4,10.4,57,0.00,CLR,FEW,0.00,WeatherDisplay:10.37,2013-01-08 17:59:00,
2013-01-08 13:04:00,44.5,29.8,30.14,SW,235,12.7,12.7,56,0.00,CLR,FEW,0.00,WeatherDisplay:10.37,2013-01-08 18:04:00,
2013-01-08 13:09:00,44.9,30.1,30.14,South,176,10.4,10.4,56,0.00,CLR,FEW,0.00,WeatherDisplay:10.37,2013-01-08 18:09:00,
2013-01-08 13:14:00,44.9,29.7,30.14,South,189,11.0,11.0,55,0.00,CLR,FEW,0.00,WeatherDisplay:10.37,2013-01-08 18:14:00,
2013-01-08 13:19:00,45.4,30.2,30.13,SW,219,11.0,11.0,55,0.00,CLR,FEW,0.00,WeatherDisplay:10.37,2013-01-08 18:19:00,
2013-01-08 13:24:00,45.3,29.6,30.14,SW,216,11.0,11.0,54,0.00,CLR,FEW,0.00,WeatherDisplay:10.37,2013-01-08 18:24:00,
2013-01-08 13:29:00,45.5,29.8,30.14,SW,231,10.4,10.4,54,0.00,CLR,FEW,0.00,WeatherDisplay:10.37,2013-01-08 18:29:00,
2013-01-08 13:34:00,45.6,29.9,30.13,SSW,203,10.4,10.4,54,0.00,CLR,FEW,0.00,WeatherDisplay:10.37,2013-01-08 18:34:00,
2013-01-08 13:39:00,45.8,30.5,30.14,SW,214,6.9,6.9,55,0.00,CLR,FEW,0.00,WeatherDisplay:10.37,2013-01-08 18:39:00,
2013-01-08 13:44:00,45.8,30.1,30.14,SW,214,11.5,11.5,54,0.00,CLR,FEW,0.00,WeatherDisplay:10.37,2013-01-08 18:44:00,
2013-01-08 13:49:00,46.1,30.4,30.14,SW,221,13.0,13.0,54,0.00,CLR,FEW,0.00,WeatherDisplay:10.37,2013-01-08 18:49:00,
2013-01-08 13:54:00,45.9,29.7,30.14,SW,218,11.5,11.5,53,0.00,CLR,FEW,0.00,WeatherDisplay:10.37,2013-01-08 18:54:00,
2013-01-08 13:59:00,45.9,29.2,30.14,SW,225,13.8,13.8,52,0.00,CLR,FEW,0.00,WeatherDisplay:10.37,2013-01-08 18:59:00,
2013-01-08 14:04:00,46.3,29.6,30.14,SSW,212,11.5,11.5,52,0.00,CLR,FEW,0.00,WeatherDisplay:10.37,2013-01-08 19:04:00,
2013-01-08 14:09:00,46.4,29.7,30.13,SW,230,8.1,8.1,52,0.00,CLR,FEW,0.00,WeatherDisplay:10.37,2013-01-08 19:09:00,
2013-01-08 14:14:00,46.6,29.9,30.13,SW,235,6.9,6.9,52,0.00,CLR,FEW,0.00,WeatherDisplay:10.37,2013-01-08 19:14:00,
2013-01-08 14:19:00,46.6,29.4,30.13,SSW,206,11.5,11.5,51,0.00,CLR,FEW,0.00,WeatherDisplay:10.37,2013-01-08 19:19:00,
2013-01-08 14:24:00,46.6,30.4,30.13,SW,225,11.5,11.5,53,0.00,CLR,FEW,0.00,WeatherDisplay:10.37,2013-01-08 19:24:00,
2013-01-08 14:29:00,46.4,29.7,30.12,SSW,197,13.0,13.0,52,0.00,CLR,FEW,0.00,WeatherDisplay:10.37,2013-01-08 19:29:00,
2013-01-08 14:34:00,46.8,30.1,30.13,SW,215,13.8,13.8,52,0.00,CLR,FEW,0.00,WeatherDisplay:10.37,2013-01-08 19:34:00,
2013-01-08 14:39:00,46.6,29.4,30.13,SW,226,11.5,11.5,51,0.00,CLR,FEW,0.00,WeatherDisplay:10.37,2013-01-08 19:39:00,
2013-01-08 14:44:00,46.5,29.3,30.13,SSW,211,11.5,11.5,51,0.00,CLR,FEW,0.00,WeatherDisplay:10.37,2013-01-08 19:44:00,
2013-01-08 14:49:00,46.6,29.4,30.13,SSW,195,13.8,13.8,51,0.00,CLR,FEW,0.00,WeatherDisplay:10.37,2013-01-08 19:49:00,
2013-01-08 14:54:00,46.7,29.5,30.13,SSW,204,13.8,13.8,51,0.00,CLR,FEW,0.00,WeatherDisplay:10.37,2013-01-08 19:54:00,
2013-01-08 14:59:00,46.9,29.7,30.13,SSW,195,13.8,13.8,51,0.00,CLR,FEW,0.00,WeatherDisplay:10.37,2013-01-08 19:59:00,
2013-01-08 15:04:00,46.9,29.7,30.13,SSW,212,13.8,13.8,51,0.00,CLR,FEW,0.00,WeatherDisplay:10.37,2013-01-08 20:04:00,
2013-01-08 15:09:00,46.8,29.6,30.13,SSW,200,12.0,12.0,51,0.00,CLR,FEW,0.00,WeatherDisplay:10.37,2013-01-08 20:09:00,
2013-01-08 15:14:00,46.7,30.0,30.13,SSW,192,8.1,8.1,52,0.00,CLR,FEW,0.00,WeatherDisplay:10.37,2013-01-08 20:14:00,
2013-01-08 15:19:00,46.8,30.1,30.13,SW,215,12.7,12.7,52,0.00,CLR,FEW,0.00,WeatherDisplay:10.37,2013-01-08 20:19:00,
2013-01-08 15:24:00,46.8,30.1,30.13,SSW,200,10.4,10.4,52,0.00,CLR,FEW,0.00,WeatherDisplay:10.37,2013-01-08 20:24:00,
2013-01-08 15:29:00,46.9,30.2,30.13,South,190,11.5,11.5,52,0.00,CLR,FEW,0.00,WeatherDisplay:10.37,2013-01-08 20:29:00,
2013-01-08 15:34:00,46.7,30.0,30.13,South,183,10.4,10.4,52,0.00,CLR,FEW,0.00,WeatherDisplay:10.37,2013-01-08 20:34:00,
2013-01-08 15:39:00,46.8,30.1,30.13,South,183,11.5,11.5,52,0.00,CLR,FEW,0.00,WeatherDisplay:10.37,2013-01-08 20:39:00,
2013-01-08 15:44:00,46.6,29.9,30.13,SSW,198,10.4,10.4,52,0.00,CLR,FEW,0.00,WeatherDisplay:10.37,2013-01-08 20:44:00,
2013-01-08 15:49:00,46.6,29.9,30.13,SSW,210,8.1,8.1,52,0.00,CLR,FEW,0.00,WeatherDisplay:10.37,2013-01-08 20:49:00,
2013-01-08 15:54:00,46.6,29.9,30.13,SSW,202,8.1,8.1,52,0.00,CLR,FEW,0.00,WeatherDisplay:10.37,2013-01-08 20:54:00,
2013-01-08 15:59:00,46.6,29.9,30.13,SSW,195,8.1,8.1,52,0.00,CLR,FEW,0.00,WeatherDisplay:10.37,2013-01-08 20:59:00,
2013-01-08 16:04:00,46.5,30.3,30.13,SW,218,10.4,10.4,53,0.00,CLR,FEW,0.00,WeatherDisplay:10.37,2013-01-08 21:04:00,
2013-01-08 16:09:00,46.4,29.7,30.13,SW,230,11.5,11.5,52,0.00,CLR,FEW,0.00,WeatherDisplay:10.37,2013-01-08 21:09:00,
2013-01-08 16:14:00,46.3,29.6,30.13,SSW,202,11.5,11.5,52,0.00,CLR,FEW,0.00,WeatherDisplay:10.37,2013-01-08 21:14:00,
2013-01-08 16:19:00,46.2,29.5,30.14,SSW,201,9.2,9.2,52,0.00,CLR,FEW,0.00,WeatherDisplay:10.37,2013-01-08 21:19:00,
2013-01-08 16:24:00,46.2,29.5,30.14,SSW,208,8.1,8.1,52,0.00,CLR,FEW,0.00,WeatherDisplay:10.37,2013-01-08 21:24:00,
2013-01-08 16:29:00,46.0,29.8,30.13,SSW,202,6.0,6.0,53,0.00,CLR,FEW,0.00,WeatherDisplay:10.37,2013-01-08 21:29:00,
2013-01-08 16:34:00,45.8,29.6,30.13,SSW,197,9.2,9.2,53,0.00,CLR,FEW,0.00,WeatherDisplay:10.37,2013-01-08 21:34:00,
2013-01-08 16:39:00,45.7,29.5,30.13,SSW,201,8.1,8.1,53,0.00,CLR,FEW,0.00,WeatherDisplay:10.37,2013-01-08 21:39:00,
2013-01-08 16:44:00,45.5,29.8,30.14,SSW,194,6.0,6.0,54,0.00,CLR,FEW,0.00,WeatherDisplay:10.37,2013-01-08 21:44:00,
2013-01-08 16:49:00,45.3,29.6,30.14,SSW,207,4.6,4.6,54,0.00,CLR,FEW,0.00,WeatherDisplay:10.37,2013-01-08 21:49:00,
2013-01-08 16:54:00,45.3,29.6,30.13,SSW,206,4.6,4.6,54,0.00,CLR,FEW,0.00,WeatherDisplay:10.37,2013-01-08 21:54:00,
2013-01-08 16:59:00,45.2,29.5,30.13,SSW,206,4.6,4.6,54,0.00,CLR,FEW,0.00,WeatherDisplay:10.37,2013-01-08 21:59:00,
2013-01-08 17:04:00,45.1,29.9,30.14,SSW,205,4.6,4.6,55,0.00,CLR,FEW,0.00,WeatherDisplay:10.37,2013-01-08 22:04:00,
2013-01-08 17:09:00,45.2,30.0,30.16,SSW,204,3.5,3.5,55,0.00,CLR,FEW,0.00,WeatherDisplay:10.37,2013-01-08 22:09:00,
2013-01-08 17:14:00,44.8,29.6,30.14,SSW,207,6.0,6.0,55,0.00,CLR,FEW,0.00,WeatherDisplay:10.37,2013-01-08 22:14:00,
2013-01-08 17:19:00,44.7,29.5,30.14,SSW,208,6.9,6.9,55,0.00,CLR,FEW,0.00,WeatherDisplay:10.37,2013-01-08 22:19:00,
2013-01-08 17:24:00,44.6,29.4,30.14,SSW,206,6.0,6.0,55,0.00,CLR,FEW,0.00,WeatherDisplay:10.37,2013-01-08 22:24:00,
2013-01-08 17:29:00,44.5,29.8,30.14,SSW,206,8.1,8.1,56,0.00,CLR,FEW,0.00,WeatherDisplay:10.37,2013-01-08 22:29:00,
2013-01-08 17:34:00,44.4,29.2,30.14,SSW,205,5.8,5.8,55,0.00,CLR,FEW,0.00,WeatherDisplay:10.37,2013-01-08 22:34:00,
2013-01-08 17:39:00,44.3,29.1,30.14,SSW,212,8.1,8.1,55,0.00,CLR,FEW,0.00,WeatherDisplay:10.37,2013-01-08 22:39:00,
2013-01-08 17:44:00,44.2,29.0,30.14,SW,214,8.1,8.1,55,0.00,CLR,FEW,0.00,WeatherDisplay:10.37,2013-01-08 22:44:00,
2013-01-08 17:49:00,44.0,29.3,30.14,SW,215,6.9,6.9,56,0.00,CLR,FEW,0.00,WeatherDisplay:10.37,2013-01-08 22:49:00,
2013-01-08 17:54:00,43.9,29.2,30.15,SW,218,8.1,8.1,56,0.00,CLR,FEW,0.00,WeatherDisplay:10.37,2013-01-08 22:54:00,
2013-01-08 17:59:00,43.8,29.1,30.15,SW,217,6.9,6.9,56,0.00,CLR,FEW,0.00,WeatherDisplay:10.37,2013-01-08 22:59:00,
2013-01-08 18:04:00,43.6,29.4,30.15,SW,224,6.9,6.9,57,0.00,CLR,FEW,0.00,WeatherDisplay:10.37,2013-01-08 23:04:00,
2013-01-08 18:09:00,43.5,29.3,30.15,SW,221,5.8,5.8,57,0.00,CLR,FEW,0.00,WeatherDisplay:10.37,2013-01-08 23:09:00,
2013-01-08 18:14:00,43.3,29.1,30.15,SW,217,5.8,5.8,57,0.00,CLR,FEW,0.00,WeatherDisplay:10.37,2013-01-08 23:14:00,
2013-01-08 18:19:00,43.2,29.0,30.16,SW,215,8.1,8.1,57,0.00,CLR,FEW,0.00,WeatherDisplay:10.37,2013-01-08 23:19:00,
2013-01-08 18:24:00,43.1,29.3,30.15,SW,229,8.1,8.1,58,0.00,CLR,FEW,0.00,WeatherDisplay:10.37,2013-01-08 23:24:00,
2013-01-08 18:29:00,42.9,29.1,30.16,SW,215,8.1,8.1,58,0.00,CLR,FEW,0.00,WeatherDisplay:10.37,2013-01-08 23:29:00,
2013-01-08 18:34:00,42.8,29.0,30.16,SW,216,8.1,8.1,58,0.00,CLR,FEW,0.00,WeatherDisplay:10.37,2013-01-08 23:34:00,
2013-01-08 18:39:00,42.6,29.3,30.16,SW,217,7.0,7.0,59,0.00,CLR,FEW,0.00,WeatherDisplay:10.37,2013-01-08 23:39:00,
2013-01-08 18:44:00,42.5,29.2,30.16,SW,217,6.9,6.9,59,0.00,CLR,FEW,0.00,WeatherDisplay:10.37,2013-01-08 23:44:00,
2013-01-08 18:49:00,42.4,29.1,30.17,SSW,208,7.0,7.0,59,0.00,CLR,FEW,0.00,WeatherDisplay:10.37,2013-01-08 23:49:00,
2013-01-08 18:54:00,42.3,29.4,30.16,SSW,209,5.8,5.8,60,0.00,CLR,FEW,0.00,WeatherDisplay:10.37,2013-01-08 23:54:00,
2013-01-08 18:59:00,42.2,29.3,30.16,SW,214,6.9,6.9,60,0.00,CLR,FEW,0.00,WeatherDisplay:10.37,2013-01-08 23:59:00,
2013-01-08 19:04:00,42.1,29.2,30.17,SSW,208,4.6,4.6,60,0.00,CLR,FEW,0.00,WeatherDisplay:10.37,2013-01-09 00:04:00,
2013-01-08 19:09:00,42.1,29.2,30.17,SW,215,8.0,8.0,60,0.00,CLR,FEW,0.00,WeatherDisplay:10.37,2013-01-09 00:09:00,
2013-01-08 19:14:00,42.1,29.2,30.16,SW,225,8.1,8.1,60,0.00,CLR,FEW,0.00,WeatherDisplay:10.37,2013-01-09 00:14:00,
2013-01-08 19:19:00,42.0,29.5,30.17,SW,215,6.9,6.9,61,0.00,CLR,FEW,0.00,WeatherDisplay:10.37,2013-01-09 00:19:00,
2013-01-08 19:24:00,41.9,29.4,30.17,SW,220,4.6,4.6,61,0.00,CLR,FEW,0.00,WeatherDisplay:10.37,2013-01-09 00:24:00,
2013-01-08 19:29:00,41.9,29.4,30.17,SW,220,5.8,5.8,61,0.00,CLR,FEW,0.00,WeatherDisplay:10.37,2013-01-09 00:29:00,
2013-01-08 19:34:00,41.9,29.4,30.17,SW,220,5.8,5.8,61,0.00,CLR,FEW,0.00,WeatherDisplay:10.37,2013-01-09 00:34:00,
2013-01-08 19:39:00,41.9,29.4,30.17,SW,215,5.0,5.0,61,0.00,CLR,FEW,0.00,WeatherDisplay:10.37,2013-01-09 00:39:00,
2013-01-08 19:44:00,41.9,29.0,30.18,SW,220,3.5,3.5,60,0.00,CLR,FEW,0.00,WeatherDisplay:10.37,2013-01-09 00:44:00,
2013-01-08 19:49:00,41.9,29.0,30.17,SW,218,3.5,3.5,60,0.00,CLR,FEW,0.00,WeatherDisplay:10.37,2013-01-09 00:49:00,
2013-01-08 19:54:00,41.9,29.0,30.18,SW,216,1.1,1.1,60,0.00,CLR,FEW,0.00,WeatherDisplay:10.37,2013-01-09 00:54:00,
2013-01-08 19:59:00,41.9,29.0,30.18,SW,214,3.5,3.5,60,0.00,CLR,FEW,0.00,WeatherDisplay:10.37,2013-01-09 00:59:00,
2013-01-08 20:04:00,41.9,28.6,30.18,SSW,206,5.8,5.8,59,0.00,CLR,FEW,0.00,WeatherDisplay:10.37,2013-01-09 01:04:00,
2013-01-08 20:09:00,41.9,28.6,30.18,SSW,204,4.6,4.6,59,0.00,CLR,FEW,0.00,WeatherDisplay:10.37,2013-01-09 01:09:00,
2013-01-08 20:14:00,41.9,28.6,30.17,SSW,205,3.5,3.5,59,0.00,CLR,FEW,0.00,WeatherDisplay:10.37,2013-01-09 01:14:00,
2013-01-08 20:19:00,41.9,28.6,30.18,SSW,205,3.5,3.5,59,0.00,CLR,FEW,0.00,WeatherDisplay:10.37,2013-01-09 01:19:00,
2013-01-08 20:24:00,41.8,28.5,30.18,SSW,204,1.1,1.1,59,0.00,CLR,FEW,0.00,WeatherDisplay:10.37,2013-01-09 01:24:00,
2013-01-08 20:29:00,41.7,28.4,30.18,SSW,205,2.3,2.3,59,0.00,CLR,FEW,0.00,WeatherDisplay:10.37,2013-01-09 01:29:00,
2013-01-08 20:34:00,41.5,28.2,30.18,SSW,204,3.5,3.5,59,0.00,CLR,FEW,0.00,WeatherDisplay:10.37,2013-01-09 01:34:00,
2013-01-08 20:39:00,41.3,28.0,30.18,SSW,204,3.5,3.5,59,0.00,CLR,FEW,0.00,WeatherDisplay:10.37,2013-01-09 01:39:00,
2013-01-08 20:44:00,41.0,28.2,30.18,SSW,204,3.5,3.5,60,0.00,CLR,FEW,0.00,WeatherDisplay:10.37,2013-01-09 01:44:00,
2013-01-08 20:49:00,40.6,28.2,30.18,SSW,204,4.0,4.0,61,0.00,CLR,FEW,0.00,WeatherDisplay:10.37,2013-01-09 01:49:00,
2013-01-08 20:54:00,40.4,28.0,30.17,SSW,205,3.5,3.5,61,0.00,CLR,FEW,0.00,WeatherDisplay:10.37,2013-01-09 01:54:00,
2013-01-08 20:59:00,40.1,28.1,30.17,SSW,204,2.3,2.3,62,0.00,CLR,FEW,0.00,WeatherDisplay:10.37,2013-01-09 01:59:00,
2013-01-08 21:04:00,39.9,27.9,30.17,SSW,204,0.0,0.0,62,0.00,CLR,FEW,0.00,WeatherDisplay:10.37,2013-01-09 02:04:00,
2013-01-08 21:09:00,39.7,28.1,30.18,SSW,204,4.0,4.0,63,0.00,CLR,FEW,0.00,WeatherDisplay:10.37,2013-01-09 02:09:00,
2013-01-08 21:14:00,39.7,28.1,30.18,SSW,204,5.0,5.0,63,0.00,CLR,FEW,0.00,WeatherDisplay:10.37,2013-01-09 02:14:00,
2013-01-08 21:19:00,39.5,27.9,30.18,SSW,204,3.5,3.5,63,0.00,CLR,FEW,0.00,WeatherDisplay:10.37,2013-01-09 02:19:00,
2013-01-08 21:24:00,39.3,27.7,30.18,SSW,204,0.0,0.0,63,0.00,CLR,FEW,0.00,WeatherDisplay:10.37,2013-01-09 02:24:00,
2013-01-08 21:29:00,39.1,27.9,30.18,SSW,204,0.0,0.0,64,0.00,CLR,FEW,0.00,WeatherDisplay:10.37,2013-01-09 02:29:00,
2013-01-08 21:34:00,38.9,27.8,30.19,SSW,204,0.0,0.0,64,0.00,CLR,FEW,0.00,WeatherDisplay:10.37,2013-01-09 02:34:00,
2013-01-08 21:39:00,38.7,27.6,30.19,SSW,204,0.0,0.0,64,0.00,CLR,FEW,0.00,WeatherDisplay:10.37,2013-01-09 02:39:00,
2013-01-08 21:44:00,38.6,27.8,30.19,SSW,204,0.0,0.0,65,0.00,CLR,FEW,0.00,WeatherDisplay:10.37,2013-01-09 02:44:00,
2013-01-08 21:49:00,38.6,27.8,30.18,SSW,204,0.0,0.0,65,0.00,CLR,FEW,0.00,WeatherDisplay:10.37,2013-01-09 02:49:00,
2013-01-08 21:54:00,38.6,27.8,30.18,SSW,204,0.0,0.0,65,0.00,CLR,FEW,0.00,WeatherDisplay:10.37,2013-01-09 02:54:00,
2013-01-08 21:59:00,38.5,27.7,30.19,SSW,204,0.0,0.0,65,0.00,CLR,FEW,0.00,WeatherDisplay:10.37,2013-01-09 02:59:00,
2013-01-08 22:04:00,38.2,27.5,30.19,SSW,204,0.0,0.0,65,0.00,CLR,FEW,0.00,WeatherDisplay:10.37,2013-01-09 03:04:00,
2013-01-08 22:09:00,38.0,27.6,30.19,SSW,204,0.0,0.0,66,0.00,CLR,FEW,0.00,WeatherDisplay:10.37,2013-01-09 03:09:00,
2013-01-08 22:14:00,37.7,27.4,30.19,SSW,204,0.0,0.0,66,0.00,CLR,FEW,0.00,WeatherDisplay:10.37,2013-01-09 03:14:00,
2013-01-08 22:19:00,37.4,27.1,30.19,SSW,204,0.0,0.0,66,0.00,CLR,FEW,0.00,WeatherDisplay:10.37,2013-01-09 03:19:00,
2013-01-08 22:24:00,37.1,26.8,30.19,SSW,205,0.0,0.0,66,0.00,CLR,FEW,0.00,WeatherDisplay:10.37,2013-01-09 03:24:00,
2013-01-08 22:29:00,36.9,27.0,30.19,SSW,204,0.0,0.0,67,0.00,CLR,FEW,0.00,WeatherDisplay:10.37,2013-01-09 03:29:00,
2013-01-08 22:34:00,36.8,26.9,30.19,SSW,204,0.0,0.0,67,0.00,CLR,FEW,0.00,WeatherDisplay:10.37,2013-01-09 03:34:00,
2013-01-08 22:39:00,36.6,26.7,30.19,SSW,204,0.0,0.0,67,0.00,CLR,FEW,0.00,WeatherDisplay:10.37,2013-01-09 03:39:00,
2013-01-08 22:44:00,36.4,26.8,30.19,SSW,205,0.0,0.0,68,0.00,CLR,FEW,0.00,WeatherDisplay:10.37,2013-01-09 03:44:00,
2013-01-08 22:49:00,36.3,26.7,30.20,SSW,204,0.0,0.0,68,0.00,CLR,FEW,0.00,WeatherDisplay:10.37,2013-01-09 03:49:00,
2013-01-08 22:54:00,36.1,26.6,30.20,SSW,204,0.0,0.0,68,0.00,CLR,FEW,0.00,WeatherDisplay:10.37,2013-01-09 03:54:00,
2013-01-08 22:59:00,35.7,26.2,30.20,SSW,204,0.0,0.0,68,0.00,CLR,FEW,0.00,WeatherDisplay:10.37,2013-01-09 03:59:00,
2013-01-08 23:04:00,35.3,26.1,30.20,SSW,204,0.0,0.0,69,0.00,CLR,FEW,0.00,WeatherDisplay:10.37,2013-01-09 04:04:00,
2013-01-08 23:09:00,35.0,25.9,30.20,SSW,204,0.0,0.0,69,0.00,CLR,FEW,0.00,WeatherDisplay:10.37,2013-01-09 04:09:00,
2013-01-08 23:14:00,35.1,26.3,30.20,SSW,204,0.0,0.0,70,0.00,CLR,FEW,0.00,WeatherDisplay:10.37,2013-01-09 04:14:00,
2013-01-08 23:19:00,34.7,25.9,30.20,SSW,205,0.0,0.0,70,0.00,CLR,FEW,0.00,WeatherDisplay:10.37,2013-01-09 04:19:00,
2013-01-08 23:24:00,34.5,26.1,30.20,SSW,204,3.5,3.5,71,0.00,CLR,FEW,0.00,WeatherDisplay:10.37,2013-01-09 04:24:00,
2013-01-08 23:29:00,34.6,26.2,30.21,SSW,204,2.3,2.3,71,0.00,CLR,FEW,0.00,WeatherDisplay:10.37,2013-01-09 04:29:00,
2013-01-08 23:34:00,34.4,26.3,30.21,SSW,204,3.5,3.5,72,0.00,CLR,FEW,0.00,WeatherDisplay:10.37,2013-01-09 04:34:00,
2013-01-08 23:39:00,34.7,26.6,30.20,SSW,204,3.5,3.5,72,0.00,CLR,FEW,0.00,WeatherDisplay:10.37,2013-01-09 04:39:00,
2013-01-08 23:44:00,34.6,26.5,30.20,SSW,204,0.0,0.0,72,0.00,CLR,FEW,0.00,WeatherDisplay:10.37,2013-01-09 04:44:00,
2013-01-08 23:49:00,34.1,26.0,30.20,SSW,204,0.0,0.0,72,0.00,CLR,FEW,0.00,WeatherDisplay:10.37,2013-01-09 04:49:00,
2013-01-08 23:54:00,33.7,25.6,30.20,SSW,204,0.0,0.0,72,0.00,CLR,FEW,0.00,WeatherDisplay:10.37,2013-01-09 04:54:00,
2013-01-08 23:59:00,33.4,25.7,30.20,SSW,204,0.0,0.0,73,0.00,CLR,FEW,0.00,WeatherDisplay:10.37,2013-01-09 04:59:00,